Starlink 34091

operational
NORAD ID: 63808 Int'l Des: 2025-092 Owner: SPXS Country: US Constellation: starlink
LEOCIRCULAR

Über Starlink 34091

Beschreibung wird geladen...

Live-Position

3D-Globus wird geladen...

Nächste Überflüge

Höhenverlauf

Altitude vs Time

uPlot chart will show altitude changes over time

Zweizeiliger Elementsatz

1 63808U 25092E 25303.70371209 .00043995 00000-0 15970-2 0 9999
2 63808 42.9990 186.7526 0002364 296.2141 63.8467 15.27614366 28785
Epoch: 30. Okt. 2025 • Age: 20 hours

Aktueller Status

Höhe 484.7 km
Geschwindigkeit 7.62 km/s
Subsatellitenpunkt -9.56°S, 143.93°E
Startdatum 4. Mai 2025
Alter 0.4 years
Typ internet

Technische Details

Klassifizierung Payload
Masse 575.00 kg
Trockenmasse 530.00 kg
Gesamtmasse 575.00 kg
Länge 0.30 m
Durchmesser 4.10 m
Spannweite 29.00 m
Form Box + pan
Hersteller SPXS
Bus-Typ Starlink V2MO
Phasenstatus In Orbit
Besitzer/Staat SPXS/US

Große Konstellationen

Loading constellations...